Showing default

BIFROST-DNK, 64588

Orbit data source: Space-Track

BIFROST-DNK, 64588 is a Danish payload satellite in SSO that was launched on Mon, 23 Jun 2025 UTC via an FALCON 9 launch vehicle from the Air Force Western Test Range (AFWTR). Payload-class satellites include a variety of spacecraft equipped with specific instruments for various scientific and technological missions. These include communications satellites like Starlink; space stations such as the ISS; scientific satellites like the Hubble; Earth observation satellites from companies like Planet Labs, Umbra, and HawkEye 360; GPS; miniature CubeSats for education and research; and military/defense satellites.

Loading next visibility...
Identifier
64588, 2025-135BN
Orbit
SSO
Country
Flag of DKDK / DEN
Related business
Manufacturer
Space Inventor
Mission
Operational Defense Imaging
Bus & Motor
SPINV MICRO, Unknown motor
Mass
~50 kg wet, ~50 kg dry
Launch date (UTC)
2025-06-23 (1 year ago)
Launch vehicle
FALCON 9
Launch site
Air Force Western Test Range (AFWTR)
Object type
Payload
Rocket body
Debris
Shape & HBR
Box + 2 Pan, 0.5 m
Radar Cross Section
0.446 m², Medium (>0.1 m² and < 1m²)

Expand to show TLE details & history
Last TLE update: 10 hours ago

TLE from 10 hours ago
0 BIFROST-DNK
1 64588U 25135BN  26171.42064383  .00001686  00000-0  16083-3 0  9996
2 64588  97.7751 286.0766 0003863 357.0889   3.0308 14.94656353 54395
Epoch: 2026-06-20T10:05Z
TLE epoch observation values (Epoch: 2026-06-20T10:05:43.626Z)
Latitude
-0.00007°
Longitude
-133.99068°
Altitude
583.799 km
Speed
7.57 km/s
True Right ascension
19h 04m 18s
True Declination
0° 00' 00"
Sunlit
Object was in full shadow at epoch
Visualization orbit readout
Latitude
Unknown
Longitude
Unknown
Altitude
Unknown
Speed
Unknown
Apparent Right ascension
Unknown
Apparent Declination
Unknown
Sunlit
N/A
Visualization observer readout
Local Sidereal Time
07:24:08
Azimuth
Unknown
Elevation
Unknown
Doppler factor
Unknown
Orbital elements
Apogee altitude
583.143 km
Perigee altitude
577.767 km
Semi-major axis
6,958.592 km
Eccentricity
0.00039
Inclination
97.7751°
RAAN
286.0766°
Arg. of periapsis
357.0889°
True anomaly
3.03314°
Mean anomaly
3.0308°
Eccentric anomaly
3.03197°
Mean motion
3.73905 °/min
Orbital period
96.28 mins
BSTAR
0.00016083
Loading maneuver chart data...
Computing Atmospheric mass density...
Loading historical data...
Loading historical data...
Loading historical data...
Loading historical data...
Loading historical data...
Loading historical data...
Loading historical data...

Documentation

Showing up to 5 results
|